Hourly Weather Taraz

Today, 29 September, Tuesday

Time Temperature Precipitation Wind Pressure Humidity
00:00 +8°C° 0 mm 2 mps 709 mmHg 40%
01:00 +7°C° 0 mm 2 mps 709 mmHg 42%
02:00 +6°C° 0 mm 2 mps 709 mmHg 44%
03:00 +7°C° 0 mm 1 mps 709 mmHg 46%
04:00 +7°C° 0 mm 1 mps 709 mmHg 47%
05:00 +6°C° 0 mm 1 mps 709 mmHg 49%
06:00 +7°C° 0 mm 1 mps 710 mmHg 46%
07:00 +8°C° 0 mm 1 mps 710 mmHg 44%
08:00 +9°C° 0 mm 1 mps 710 mmHg 42%
09:00 +11°C° 0 mm 1 mps 710 mmHg 37%
10:00 +12°C° 0 mm 2 mps 710 mmHg 33%
11:00 +14°C° 0 mm 2 mps 710 mmHg 28%
12:00 +16°C° 0 mm 3 mps 710 mmHg 26%
13:00 +17°C° 0 mm 4 mps 710 mmHg 24%
14:00 +19°C° 0 mm 5 mps 710 mmHg 21%
15:00 +17°C° 0 mm 5 mps 710 mmHg 21%
16:00 +17°C° 0 mm 5 mps 710 mmHg 21%
17:00 +17°C° 0 mm 5 mps 710 mmHg 20%
18:00 +15°C° 0 mm 5 mps 710 mmHg 22%
19:00 +14°C° 0 mm 5 mps 710 mmHg 24%
20:00 +12°C° 0 mm 5 mps 710 mmHg 26%
21:00 +11°C° 0 mm 4 mps 709 mmHg 27%
22:00 +11°C° 0 mm 4 mps 708 mmHg 28%
23:00 +10°C° 0 mm 4 mps 708 mmHg 29%

Tomorrow, 30 September, Wednesday

Time Temperature Precipitation Wind Pressure Humidity
00:00 +9°C° 0 mm 3 mps 708 mmHg 31%
01:00 +8°C° 0 mm 3 mps 707 mmHg 32%
02:00 +8°C° 0 mm 2 mps 707 mmHg 33%
03:00 +7°C° 0 mm 2 mps 707 mmHg 34%
04:00 +8°C° 0 mm 1 mps 707 mmHg 34%
05:00 +8°C° 0 mm 1 mps 708 mmHg 35%
06:00 +9°C° 0 mm 1 mps 708 mmHg 33%
07:00 +9°C° 0 mm 1 mps 708 mmHg 32%
08:00 +10°C° 0 mm 1 mps 708 mmHg 31%
09:00 +10°C° 0 mm 2 mps 709 mmHg 29%
10:00 +10°C° 0 mm 2 mps 709 mmHg 28%
11:00 +12°C° 0 mm 2 mps 709 mmHg 27%
12:00 +12°C° 0 mm 3 mps 709 mmHg 27%
13:00 +13°C° 0 mm 3 mps 709 mmHg 26%
14:00 +14°C° 0 mm 3 mps 709 mmHg 25%
15:00 +14°C° 0 mm 3 mps 709 mmHg 26%
16:00 +14°C° 0 mm 2 mps 710 mmHg 26%
17:00 +14°C° 0 mm 2 mps 710 mmHg 27%
18:00 +13°C° 0 mm 2 mps 710 mmHg 28%
19:00 +13°C° 0 mm 1 mps 710 mmHg 30%
20:00 +12°C° 0 mm 1 mps 710 mmHg 31%
21:00 +11°C° 0 mm 1 mps 710 mmHg 34%
22:00 +10°C° 0 mm 1 mps 709 mmHg 37%
23:00 +9°C° 0 mm 1 mps 709 mmHg 40%

Day after tomorrow, 1 October, Thursday

Time Temperature Precipitation Wind Pressure Humidity
00:00 +9°C° 0 mm 1 mps 709 mmHg 42%
01:00 +8°C° 0 mm 1 mps 709 mmHg 44%
02:00 +8°C° 0 mm 1 mps 708 mmHg 46%
03:00 +7°C° 0 mm 1 mps 708 mmHg 47%
04:00 +7°C° 0 mm 1 mps 708 mmHg 49%
05:00 +5°C° 0 mm 0 mps 708 mmHg 50%
06:00 +7°C° 0 mm 0 mps 709 mmHg 45%
07:00 +9°C° 0 mm 0 mps 709 mmHg 41%
08:00 +10°C° 0 mm 0 mps 709 mmHg 36%
09:00 +13°C° 0 mm 1 mps 709 mmHg 33%
10:00 +15°C° 0 mm 2 mps 709 mmHg 30%
11:00 +17°C° 0 mm 3 mps 709 mmHg 26%
12:00 +18°C° 0 mm 3 mps 709 mmHg 25%
13:00 +19°C° 0 mm 3 mps 709 mmHg 24%
14:00 +20°C° 0 mm 4 mps 709 mmHg 22%
15:00 +19°C° 0 mm 4 mps 709 mmHg 23%
16:00 +19°C° 0 mm 4 mps 709 mmHg 23%
17:00 +18°C° 0 mm 3 mps 709 mmHg 23%
18:00 +16°C° 0 mm 3 mps 708 mmHg 27%
19:00 +14°C° 0 mm 2 mps 708 mmHg 31%
20:00 +12°C° 0 mm 1 mps 708 mmHg 35%
21:00 +11°C° 0 mm 1 mps 708 mmHg 36%
22:00 +11°C° 0 mm 1 mps 708 mmHg 37%
23:00 +10°C° 0 mm 1 mps 708 mmHg 38%

2 October, Friday

Time Temperature Precipitation Wind Pressure Humidity
00:00 +9°C° 0 mm 1 mps 707 mmHg 39%
01:00 +9°C° 0 mm 1 mps 707 mmHg 41%
02:00 +8°C° 0 mm 1 mps 707 mmHg 42%
03:00 +8°C° 0 mm 1 mps 707 mmHg 43%
04:00 +7°C° 0 mm 1 mps 707 mmHg 44%
05:00 +7°C° 0 mm 1 mps 707 mmHg 44%
06:00 +9°C° 0 mm 1 mps 708 mmHg 40%
07:00 +10°C° 0 mm 1 mps 708 mmHg 36%
08:00 +12°C° 0 mm 1 mps 708 mmHg 32%
09:00 +14°C° 0 mm 1 mps 709 mmHg 29%
10:00 +16°C° 0 mm 2 mps 709 mmHg 26%
11:00 +18°C° 0 mm 2 mps 709 mmHg 23%
12:00 +19°C° 0 mm 2 mps 709 mmHg 21%
13:00 +20°C° 0 mm 2 mps 709 mmHg 20%
14:00 +21°C° 0 mm 3 mps 709 mmHg 18%
15:00 +21°C° 0 mm 3 mps 709 mmHg 19%
16:00 +20°C° 0 mm 2 mps 709 mmHg 19%
17:00 +20°C° 0 mm 2 mps 709 mmHg 20%
18:00 +17°C° 0 mm 2 mps 709 mmHg 24%
19:00 +15°C° 0 mm 1 mps 708 mmHg 29%
20:00 +12°C° 0 mm 1 mps 708 mmHg 33%
21:00 +12°C° 0 mm 1 mps 708 mmHg 34%
22:00 +11°C° 0 mm 1 mps 708 mmHg 36%
23:00 +11°C° 0 mm 1 mps 708 mmHg 37%

3 October, Saturday

Time Temperature Precipitation Wind Pressure Humidity
00:00 +10°C° 0 mm 1 mps 707 mmHg 38%
01:00 +10°C° 0 mm 1 mps 707 mmHg 38%
02:00 +10°C° 0 mm 1 mps 707 mmHg 39%
03:00 +10°C° 0 mm 1 mps 707 mmHg 40%
04:00 +9°C° 0 mm 1 mps 707 mmHg 42%
05:00 +9°C° 0 mm 1 mps 708 mmHg 43%
06:00 +11°C° 0 mm 1 mps 708 mmHg 39%
07:00 +13°C° 0 mm 1 mps 708 mmHg 34%
08:00 +14°C° 0 mm 0 mps 709 mmHg 29%
09:00 +18°C° 0 mm 1 mps 709 mmHg 26%
10:00 +18°C° 0 mm 2 mps 709 mmHg 23%
11:00 +20°C° 0 mm 2 mps 709 mmHg 21%
12:00 +21°C° 0 mm 3 mps 709 mmHg 19%
13:00 +22°C° 0 mm 3 mps 709 mmHg 17%
14:00 +22°C° 0 mm 4 mps 709 mmHg 15%
15:00 +22°C° 0 mm 4 mps 709 mmHg 16%
16:00 +21°C° 0 mm 4 mps 709 mmHg 17%
17:00 +20°C° 0 mm 4 mps 709 mmHg 17%
18:00 +18°C° 0 mm 3 mps 709 mmHg 21%
19:00 +15°C° 0 mm 2 mps 709 mmHg 25%
20:00 +13°C° 0 mm 1 mps 709 mmHg 28%
21:00 +12°C° 0 mm 1 mps 709 mmHg 30%
22:00 +11°C° 0 mm 1 mps 709 mmHg 31%
23:00 +11°C° 0 mm 1 mps 708 mmHg 33%

4 October, Sunday

Time Temperature Precipitation Wind Pressure Humidity
00:00 +10°C° 0 mm 1 mps 708 mmHg 35%
01:00 +10°C° 0 mm 1 mps 708 mmHg 37%
02:00 +10°C° 0 mm 1 mps 708 mmHg 39%
03:00 +9°C° 0 mm 1 mps 708 mmHg 41%
04:00 +9°C° 0 mm 1 mps 709 mmHg 44%
05:00 +9°C° 0 mm 1 mps 709 mmHg 46%
06:00 +11°C° 0 mm 1 mps 709 mmHg 40%
07:00 +13°C° 0 mm 1 mps 710 mmHg 33%
08:00 +15°C° 0 mm 1 mps 711 mmHg 27%
09:00 +18°C° 0 mm 1 mps 711 mmHg 25%
10:00 +19°C° 0 mm 2 mps 711 mmHg 22%
11:00 +20°C° 0 mm 2 mps 711 mmHg 20%
12:00 +21°C° 0 mm 2 mps 711 mmHg 19%
13:00 +22°C° 0 mm 3 mps 711 mmHg 17%
14:00 +22°C° 0 mm 3 mps 710 mmHg 16%
15:00 +22°C° 0 mm 3 mps 710 mmHg 17%
16:00 +21°C° 0 mm 3 mps 710 mmHg 17%
17:00 +21°C° 0 mm 3 mps 710 mmHg 18%
18:00 +18°C° 0 mm 2 mps 710 mmHg 22%
19:00 +16°C° 0 mm 2 mps 710 mmHg 26%
20:00 +13°C° 0 mm 1 mps 710 mmHg 30%
21:00 +12°C° 0 mm 1 mps 710 mmHg 31%
22:00 +12°C° 0 mm 1 mps 710 mmHg 32%
23:00 +11°C° 0 mm 1 mps 709 mmHg 33%
Show more

We Need Your Consent

Meteoprog and our Service Providers may store and access personal data such as cookies, device identifiers or other similar technologies on your device and process such data to personalise content and ads, as well as provide social media features and to analyse the traffic.

  • Store and/or access information on your device

    Cookies, device identifiers or other information can be stored or accessed on your device for the purposes indicated above.

  • Personalised ads and content, ad and content measurement, audience insights, and products development

    Ads and content can be personalised based on a profile. More data can be added to better personalise ads and content. Ad and content performance can be measured. Insights about the audience who saw the ads and content can be derived. Such data can be used to develop or improve user’s experience, systems and software.

By clicking ‘I Agree’ you will allow the use of indicated cookies, device identifiers, web beacons or other similar technologies. Your settings can be changed in the browser on your device.

For certain purposes, legitimate interests may be relied on, rather than consent. You can read more about this in our Privacy and Cookie Policy.